OpenBCM V1.08-5-g2f4a (Linux)

Packet Radio Mailbox

IZ3LSV

[San Dona' di P. JN]

 Login: GUEST





  
LU9DCE > KEPS     19.02.17 17:14l 183 Lines 9000 Bytes #999 (0) @ WW
BID : 2091_LU9DCE
Read: GUEST
Subj: SAT TLE OF feb 2017
Path: IZ3LSV<IW2OHX<UA6ADV<CX2SA<LU4ECL<LU9DCE
Sent: 170219/1501Z @:LU9DCE.TOR.BA.ARG.SOAM #:2091 [TORTUGUITAS] FBB7.0.8-beta2
From: LU9DCE@LU9DCE.TOR.BA.ARG.SOAM
To  : KEPS@ALL

OSCAR 3
1 01293U 65016F   17049.16045873  .00000227  00000-0  17055-3 0  9990
2 01293  70.0724 226.9486 0016312  19.5786 340.5948 14.06142289653614
OSCAR 5
1 04321U 70008B   17049.52298601 -.00000056  00000-0 -72566-4 0  9992
2 04321 101.7642 117.9079 0027834  39.7236  65.6474 12.52169305151633
OSCAR 6
1 06236U 72082B   17048.82632333 -.00000025  00000-0  12231-3 0  9996
2 06236 101.6937  15.7774 0004002 186.6669 238.9111 12.53135041 28454
OSCAR 7
1 07530U 74089B   17049.88812031 -.00000024  00000-0  12760-3 0  9991
2 07530 101.6148  20.9794 0011891 190.4466 225.0932 12.53625541934035
OSCAR 8
1 10703U 78026B   17049.86941450 -.00000245  00000-0 -13934-3 0  9998
2 10703  98.8716  16.0833 0006251 304.2957 108.5048 13.99220748988047
OSCAR 10
1 14129U 83058B   17048.53214538 -.00000308  00000-0  00000+0 0  9993
2 14129  26.8998  53.5524 6022204 273.4362 100.7669  2.05869062225352
OSCAR 11 (UoSAT 2)
1 14781U 84021B   17050.14914895  .00000078  00000-0  15911-4 0  9996
2 14781  97.7149 100.1074 0007585 218.5958 141.4714 14.82858391772856
OSCAR 16 (PACSAT)
1 20439U 90005D   17049.45820977  .00000015  00000-0  21660-4 0  9990
2 20439  98.5992 349.6287 0011337 147.6965 328.3060 14.32667557414405
OSCAR 17 (DOVE)
1 20440U 90005E   17048.85126247  .00000038  00000-0  29988-4 0  9990
2 20440  98.5795 348.2515 0011577 135.5319 293.6984 14.33061784414558
OSCAR 18 (WEBERSAT)
1 20441U 90005F   17049.82498140  .00000025  00000-0  25408-4 0  9992
2 20441  98.5824 348.5036 0012095 141.5959 277.4146 14.32715556414547
OSCAR 19 (LUSAT)
1 20442U 90005G   17049.43195483  .00000007  00000-0  18681-4 0  9999
2 20442  98.5668 347.2134 0012531 134.6109 225.6100 14.32848702414617
JAS 1B (FUJI 2)
1 20480U 90013C   17049.44185188 -.00000004  00000-0  72096-4 0  9990
2 20480  99.0317 204.9445 0539454 300.0588  54.8053 12.83414483266486
COSMOS 2123
1 21089U 91007A   17049.42472147  .00000042  00000-0  28218-4 0  9990
2 21089  82.9266 345.9417 0030605  79.0862  59.8636 13.74644059306294
OSCAR 22 (UoSAT 5)
1 21575U 91050B   17049.88363135  .00000025  00000-0  22243-4 0  9997
2 21575  98.7625  63.4352 0006305 296.3392  63.7148 14.40783775344242
OSCAR 23 (KITSAT 1)
1 22077U 92052B   17049.91820602 -.00000031  00000-0  12405-3 0  9995
2 22077  66.0827 214.2867 0002431 357.8223 158.1587 12.86517267152175
KITSAT B
1 22825U 93061C   17049.87318071  .00000016  00000-0  23908-4 0  9997
2 22825  98.7966  14.1011 0007759 323.4248  36.6403 14.29986076220499
POSAT 1
1 22826U 93061D   17049.51162966  .00000017  00000-0  24103-4 0  9998
2 22826  98.7909  13.8319 0008157 314.0671  45.9838 14.30313653220619
ITAMSAT
1 22828U 93061F   17049.88537804  .00000002  00000-0  18178-4 0  9996
2 22828  98.7816  13.0345 0008828 277.7885  82.2294 14.30623069189020
EYESAT A
1 22829U 93061G   17049.90190211  .00000019  00000-0  24762-4 0  9991
2 22829  98.7852  15.7109 0008648 267.4065 151.2969 14.30958192221159
RADIO ROSTO
1 23439U 94085A   17048.48475233 -.00000045  00000-0 -79499-4 0  9996
2 23439  64.8163  52.7772 0168170 266.2763 268.3133 11.27566101912071
JAS 2
1 24278U 96046B   17049.55550366 -.00000033  00000-0  56773-5 0  9994
2 24278  98.5801 308.4979 0349391 284.7705  71.4971 13.53074683 12831
TMSAT
1 25396U 98043C   17049.80031334  .00000023  00000-0  28590-4 0  9995
2 25396  98.5718 356.5751 0002030 335.9304  24.1780 14.24428470967313
TECHSAT 1B
1 25397U 98043D   17049.83773109 -.00000000  00000-0  18769-4 0  9995
2 25397  98.5980 354.7469 0001520  31.8431 328.2840 14.23615108966956
SEDSAT 1
1 25509U 98061B   17049.32731430  .00000210  00000-0  30876-4 0  9990
2 25509  31.4329  19.6941 0346873  41.7110 320.9427 14.30260415957116
PAN SAT
1 25520U 98064B   17050.22956917  .00000859  00000-0  22516-4 0  9997
2 25520  28.4588  67.6712 0005356 134.4483 225.6550 15.28196488 16224
ISS (ZARYA)
1 25544U 98067A   17050.56429271  .00002560  00000-0  45508-4 0  9998
2 25544  51.6423 264.6561 0006799 206.9540 209.4104 15.54393083 43468
OSCAR 36 (UOSAT 12)
1 25693U 99021A   17050.40197004 -.00000036  00000-0  14095-4 0  9997
2 25693  64.5562 128.6933 0023654 323.6737  36.2762 14.80715013962720
OPAL
1 26063U 00004C   17049.89456369  .00000001  00000-0  20408-4 0  9991
2 26063 100.2211  31.4913 0035827 282.2580  77.4589 14.36652783894397
SAUDISAT 1A
1 26545U 00057A   17049.50992155  .00000083  00000-0  27558-4 0  9993
2 26545  64.5541  95.1425 0050588 242.9774 116.6164 14.84703587886729
TIUNGSAT 1
1 26548U 00057D   17050.22001014  .00000083  00000-0  25509-4 0  9996
2 26548  64.5523   8.9995 0043190 241.0376 118.6400 14.88937805888537
SAUDISAT 1B
1 26549U 00057E   17049.52678465  .00000047  00000-0  24002-4 0  9995
2 26549  64.5536 128.6062 0055353 244.9528 114.5826 14.83318284886042
AMSAT OSCAR 40
1 26609U 00072B   17048.45353201 -.00000370  00000-0  00000+0 0  9995
2 26609   6.3565 247.2672 7958636  81.5034 351.9470  1.25588405 74834
PCSAT
1 26931U 01043C   17049.80536975 -.00000007  00000-0  28994-4 0  9997
2 26931  67.0514  36.6330 0007204 280.7725  79.2565 14.30447111803417
SAPPHIRE
1 26932U 01043D   17049.19776958 -.00000046  00000-0  14236-4 0  9994
2 26932  67.0562  40.3687 0006539 294.4251  65.6167 14.30239454803353
RUBIN 2
1 27605U 02058A   17049.76898053 -.00000032  00000-0  15947-4 0  9998
2 27605  64.5556 109.4416 0039071 150.5589 209.7726 14.74879518762014
SAUDISAT 1C
1 27607U 02058C   17050.19108687  .00000028  00000-0  24666-4 0  9998
2 27607  64.5556 126.1273 0038135 150.5859 209.7400 14.75284205761701
MOZHAYETS 4
1 27939U 03042A   17050.22096156  .00000159  00000-0  37004-4 0  9996
2 27939  97.9192 198.8961 0011920 237.2318 246.7867 14.66522095716026
AMSAT ECHO
1 28375U 04025K   17049.07181934  .00000026  00000-0  21216-4 0  9994
2 28375  98.3508 345.0592 0081392 282.9913  76.2198 14.41824642664651
HAMSAT
1 28650U 05017B   17049.91895792  .00000308  00000-0  38726-4 0  9996
2 28650  97.6378  28.3679 0024067 158.7805 201.4416 14.88563222638579
SSETI-EXPRESS
1 28894U 05043E   17049.18813401  .00000079  00000-0  24908-4 0  9993
2 28894  97.8635 211.9332 0017407 169.2159 190.9419 14.61418585602952
MOZ.5/SAFIR/RUBIN 5/SL-8
1 28898U 05043G   17049.50099705  .00000013  00000-0  11965-4 0  9993
2 28898  97.9070 204.5366 0019473 197.3880 162.6656 14.60163832602515
PEHUENSAT 1
1 29712U 07001D   17049.54682628  .00004837  00000-0  28760-3 0  9999
2 29712  97.5632  74.9292 0006242 334.0874  26.0043 15.11722413549416
DELFI C3
1 32789U 08021G   17049.71720419  .00002389  00000-0  17514-3 0  9995
2 32789  97.5744 110.3877 0013864 141.4651 218.7567 15.04397481479051
YUBELEINY
1 32953U 08025A   17050.21204293  .00000002  00000-0 -53765-4 0  9996
2 32953  82.5053 313.0290 0018489 180.6352 179.4707 12.43074669396768
PRISM (HITOMI)
1 33493U 09002B   17050.21011552  .00000944  00000-0  90905-4 0  9997
2 33493  98.1847 287.5588 0016824 110.3022 250.0038 14.95461213438148
STARS (KUKAI)
1 33498U 09002G   17050.04609622  .00000289  00000-0  47216-4 0  9993
2 33498  98.3114 220.1131 0011214  15.1526  99.8762 14.78482085434441
KKS-1 (KISEKI)
1 33499U 09002H   17050.18907035  .00000149  00000-0  30190-4 0  9996
2 33499  98.3163 212.2131 0009834  36.7736 323.4144 14.75135308433961
SUMBANDILA
1 35870U 09049F   17050.11945389  .00004986  00000-0  84452-4 0  9992
2 35870  97.1094  67.9846 0003689 117.6424 283.1992 15.51994238414905
XIWANG-1 (HOPE-1)
1 36122U 09072B   17050.22790451 -.00000068  00000-0 -68359-4 0  9996
2 36122 100.1145  81.7381 0007954 143.7717 216.3936 13.16338228345112
JUGNU
1 37839U 11058B   17050.17282030  .00000313  00000-0  25326-4 0  9990
2 37839  19.9618  86.0459 0018852 323.2169  82.7942 14.12571704276995
SRMSAT
1 37841U 11058D   17048.59965360  .00000319  00000-0  30330-4 0  9997
2 37841  19.9717 134.8065 0011681 207.2937 290.6582 14.10564886276373
RAX-2
1 37853U 11061D   17049.42841282  .00001338  00000-0  83587-4 0  9997
2 37853 101.7149 216.2638 0177280  78.9198 283.1890 15.00982595288829
AUBIESAT-1
1 37854U 11061E   17050.15725233  .00001574  00000-0  92397-4 0  9998
2 37854 101.7087 223.7128 0168864  64.1662 297.6857 15.03622944289195
M-CUBED/EXP-1 PRIME
1 37855U 11061F   17049.55267147  .00002035  00000-0  11479-3 0  9990
2 37855 101.7209 220.6850 0182033  71.7340 290.3584 15.02574799288976
CHIBIS-M
1 38051U 11062C   14288.65876392  .70201582  12497-4  27925-2 0  9995
2 38051 051.5964 324.1908 0006422 269.6897 186.8903 16.43533377153081
MASAT-1
1 38081U 12006E   15009.86954674  .36181825  49011-5  43735-3 0  9992
2 38081 069.4150 141.5751 0006093 101.2598 259.4750 16.49686879155248

======================================================================
You have a strong appeal for members of your own sex.
======================================================================
        __  __  __ __
|  /  \(__\|  \/  |_    BBS GF05OM TORTUGUITAS
|__\__/ __/|__/\__|__   TELNET LU9DCE.DYNU.COM PORT 6300
== power by linux ===   TELNET LU9DCE.AMPR.ORG PORT 7300

############ BBS HF TESTING IN 28.120 USB @ 300 BAUD #################



Read previous mail | Read next mail


 06.05.2025 21:41:11lGo back Go up